Wind_Speed
39 39 39 39 40 40 40 40 40 40 40 39 39 39 39 38 39 40 41 41 41 41 41 41 41 41 41 42 42 43 43 44 44 44 45 46 47 47 47 48 48 48 48
36 37 37 37 37 37 37 37 38 39 39 38 38 38 38 39 39 40 40 40 41 41 41 41 41 41 41 41 41 41 42 43 44 44 45 46 47 47 47 48 48 48 49
35 35 35 35 35 35 36 36 37 37 37 37 37 38 38 38 39 40 40 40 39 40 40 40 40 40 40 40 41 41 41 42 43 43 44 45 46 47 47 47 46 47 49
34 34 34 34 34 34 35 35 35 35 35 36 37 37 37 37 38 39 39 39 39 39 39 39 39 40 40 39 39 40 41 41 42 43 43 44 45 46 47 47 47 47 47
34 33 33 33 33 33 33 33 33 33 34 35 36 36 36 36 37 37 37 38 37 37 38 38 39 40 39 39 39 40 40 40 40 40 41 42 43 44 45 46 47 47 48
33 33 33 33 32 32 32 32 32 32 32 33 34 34 34 34 35 35 35 36 36 36 36 37 37 38 38 38 38 38 38 38 39 39 39 40 40 41 42 43 44 45 46
32 32 31 31 31 31 31 31 31 31 32 32 32 33 33 33 33 34 34 34 34 35 35 35 35 36 36 37 36 37 37 37 37 38 38 39 39 39 40 41 42 43 43
30 30 29 29 30 30 30 30 30 31 31 31 31 32 32 33 33 33 33 33 33 33 33 34 35 35 35 36 35 36 36 37 37 38 39 39 39 39 39 40 40 40 41
28 28 28 28 28 28 28 29 30 30 30 30 31 31 31 31 31 32 32 32 32 31 32 33 34 34 35 35 35 35 36 36 36 37 38 39 39 39 39 39 39 39 40
26 26 26 27 27 27 27 28 28 28 29 30 30 30 29 30 30 30 30 30 30 30 30 31 31 32 33 33 33 34 35 35 35 36 36 37 37 38 38 38 38 38 39
25 25 25 26 26 26 27 26 26 26 27 27 28 28 28 28 28 28 28 28 29 29 29 29 30 30 31 31 32 33 33 34 34 34 34 34 35 35 35 35 35 36 36
23 24 25 25 25 25 24 24 25 25 25 25 26 26 27 27 27 27 27 27 27 28 28 28 28 29 30 30 31 32 32 32 32 32 32 32 32 33 33 34 33 33 33
21 22 23 24 24 24 23 23 23 23 23 23 24 24 25 26 25 25 25 25 26 26 26 27 27 28 29 29 30 29 30 30 30 30 30 30 30 30 31 31 31 30 29
21 21 21 22 22 22 22 22 22 22 22 22 22 23 24 24 23 23 23 24 24 24 25 25 26 27 27 27 28 27 27 27 28 28 28 28 28 29 29 29 28 27 26
21 21 21 20 20 20 20 21 21 21 21 21 21 22 22 23 23 23 23 23 23 23 24 24 25 25 24 25 26 26 26 25 25 25 26 26 27 27 27 26 25 25 25
20 20 20 19 19 19 19 19 20 20 20 20 21 21 21 21 22 22 21 21 21 22 22 22 22 22 23 23 24 24 24 24 23 23 23 23 24 24 24 24 24 23 22
19 19 19 18 18 18 18 18 18 19 19 19 19 19 19 20 20 20 20 20 20 21 21 21 21 20 21 21 22 22 22 22 22 21 21 21 21 22 22 22 22 21 21
19 19 18 17 17 17 18 17 18 18 18 18 18 18 18 18 18 19 19 19 19 19 19 19 19 19 19 19 19 20 20 20 19 19 19 19 19 19 19 19 20 19 19
19 18 17 17 17 17 17 17 17 17 17 17 17 17 17 17 17 17 18 18 18 18 18 18 18 17 17 17 17 17 17 18 18 18 18 18 17 17 17 17 17 17 17
18 17 16 16 16 16 16 16 16 16 16 16 16 16 16 17 16 16 16 16 17 17 17 17 17 16 16 16 16 16 16 16 17 17 17 16 15 14 14 14 15 15 15
16 15 15 15 15 15 14 14 14 14 14 14 14 15 15 15 15 15 15 15 15 16 16 16 16 16 16 16 15 15 15 15 15 15 15 14 13 12 12 12 13 13 14
14 13 13 13 13 14 13 13 13 13 13 13 14 14 14 14 14 14 14 14 15 15 15 16 16 15 15 15 15 14 14 14 13 13 12 12 11 11 11 11 11 12 13
13 13 13 12 12 12 12 12 12 12 12 12 12 13 12 13 13 13 14 14 14 14 14 14 14 14 14 13 13 13 12 12 12 12 11 10 10 10 11 11 11 11 12
13 12 12 12 11 11 10 10 10 10 10 11 11 11 11 12 12 13 13 14 13 13 13 13 13 13 12 12 12 12 12 11 11 11 10 10 10 10 10 10 10 11 11
12 12 11 11 10 10 9 9 9 9 9 10 10 10 10 11 11 12 12 13 13 13 13 12 12 12 11 11 11 11 11 10 10 10 10 10 9 9 9 10 10 10 10
12 11 11 10 10 9 9 8 8 8 8 9 9 9 9 10 10 11 11 11 12 12 12 12 11 11 11 10 10 10 10 10 10 10 10 9 9 9 9 9 9 9 9
Wind_Direction
276 275 274 273 271 271 270 269 268 266 265 264 264 262 261 261 261 259 259 258 258 258 259 258 259 259 260 259 259 259 260 259 258 258 257 257 258 259 260 261 262 263 264
277 276 275 273 273 273 271 270 268 266 265 265 264 262 261 260 260 259 259 258 258 258 258 258 258 259 259 259 259 261 261 260 260 259 258 259 259 259 261 262 263 263 264
277 277 276 274 274 273 271 270 268 267 265 264 263 262 261 260 259 259 259 259 259 259 258 258 257 258 259 259 261 262 262 261 261 261 260 260 260 261 262 262 263 264 264
278 277 277 276 275 274 272 271 269 267 265 263 262 261 260 260 260 260 258 259 259 259 258 258 257 258 259 260 262 263 263 263 263 262 262 261 261 262 262 263 264 264 265
278 278 278 277 276 274 272 271 269 266 264 263 262 260 259 259 260 260 258 259 260 260 259 259 259 260 260 261 262 263 264 264 264 264 264 263 263 263 264 264 265 265 266
278 277 277 277 276 274 272 270 268 265 263 262 262 260 259 260 259 259 260 260 261 261 261 261 260 260 260 262 262 262 263 264 265 265 265 265 265 265 265 266 266 267 268
277 276 275 276 275 274 273 269 267 265 263 262 261 260 260 259 260 260 260 260 261 261 262 261 260 259 259 260 260 262 263 264 264 265 265 266 267 267 267 267 268 268 268
278 276 276 275 274 274 273 270 267 266 263 260 261 260 260 260 260 260 260 260 262 262 262 262 260 259 259 259 260 262 263 264 265 266 266 266 267 268 268 268 269 269 269
279 276 275 274 274 274 273 271 268 266 261 260 260 261 261 261 260 259 260 261 262 262 263 262 261 260 259 259 260 261 263 265 266 267 267 266 267 269 269 269 269 269 269
280 277 275 275 275 275 274 273 270 266 262 259 260 260 261 260 259 259 260 261 262 263 263 264 263 261 260 260 262 263 264 265 265 266 266 266 267 269 269 270 270 269 270
279 278 277 276 276 276 274 272 270 267 263 260 260 259 260 259 258 258 259 261 262 263 263 264 263 263 262 261 262 264 265 266 266 266 267 266 267 268 268 270 271 270 271
282 281 279 277 277 276 274 272 271 268 264 261 261 259 259 258 258 258 259 261 262 263 264 263 263 263 263 264 264 264 265 266 267 266 266 266 266 267 268 270 271 271 272
285 284 282 280 278 276 275 274 271 267 263 261 260 258 258 257 256 257 258 260 261 262 263 263 263 264 265 265 265 266 266 266 266 266 266 265 265 265 267 269 270 271 271
287 287 286 283 279 277 275 274 272 267 262 260 259 257 257 257 257 258 260 261 261 262 263 264 265 266 265 266 266 267 268 267 266 266 265 264 264 265 266 267 267 268 268
290 290 287 285 282 278 276 276 272 267 262 261 261 258 257 257 258 261 261 262 263 264 264 266 267 266 266 267 267 266 266 267 268 267 266 265 265 265 266 266 265 267 267
294 294 291 287 283 281 278 275 269 265 261 263 263 261 259 258 258 259 262 262 261 262 263 266 266 265 265 266 266 265 266 267 268 268 268 267 266 266 266 266 264 266 267
293 294 292 288 284 282 279 275 269 264 260 262 263 261 259 258 258 259 261 261 261 261 262 265 266 266 267 266 267 267 268 268 268 268 269 269 268 267 265 265 264 264 266
292 291 289 286 283 280 279 275 269 264 261 261 261 259 258 259 260 260 260 260 261 262 263 264 266 267 268 268 269 270 269 268 267 267 268 268 268 267 266 264 263 265 268
290 291 287 283 283 282 279 276 271 265 261 260 260 260 259 260 261 260 260 259 260 261 262 264 266 268 268 270 270 269 268 266 265 265 266 267 268 268 266 266 265 264 267
289 287 284 281 281 282 280 275 269 264 261 259 259 260 260 259 259 260 260 260 260 259 260 262 264 267 269 270 270 268 266 265 265 265 265 265 266 266 265 264 264 264 265
288 285 283 281 279 280 278 273 268 264 262 258 257 259 259 257 257 259 260 260 260 259 260 262 264 267 270 270 269 267 264 263 263 263 263 262 262 265 266 266 266 266 265
288 287 284 282 282 280 276 268 264 263 261 257 257 257 256 256 257 258 260 260 260 261 262 264 265 267 270 268 267 265 262 260 259 259 257 260 263 265 266 269 269 268 268
293 292 288 285 283 280 273 268 264 261 258 254 254 254 254 254 254 254 257 258 259 262 263 264 265 266 266 265 262 259 257 256 255 254 254 260 265 269 268 270 271 269 269
296 295 291 286 282 279 274 270 266 262 256 254 253 253 253 253 253 254 257 259 259 261 261 262 263 264 264 263 258 254 254 253 251 251 253 260 266 271 272 271 271 273 274
297 293 289 287 283 279 274 271 267 263 258 255 255 255 253 254 255 257 259 261 259 259 261 262 261 260 262 262 256 250 249 249 248 249 253 260 267 269 271 272 273 275 278
298 292 288 286 281 278 276 270 265 263 261 258 257 256 257 258 258 259 260 260 259 258 258 258 258 260 262 260 253 247 247 248 246 248 253 259 266 270 274 274 274 279 281
Height
5597 5596 5595 5594 5593 5592 5592 5591 5591 5592 5593 5594 5594 5595 5596 5597 5598 5600 5601 5603 5605 5606 5608 5609 5611 5612 5613 5614 5615 5616 5618 5619 5622 5624 5625 5626 5628 5630 5631 5632 5634 5635 5636
5587 5585 5584 5583 5582 5582 5581 5580 5580 5581 5581 5582 5583 5584 5585 5587 5588 5589 5590 5592 5594 5596 5597 5599 5600 5601 5602 5604 5604 5605 5606 5607 5610 5612 5613 5614 5615 5616 5618 5619 5621 5622 5623
5576 5575 5574 5573 5572 5571 5570 5570 5570 5570 5570 5571 5572 5573 5574 5576 5577 5578 5580 5581 5583 5584 5586 5588 5589 5590 5592 5593 5594 5594 5595 5596 5597 5599 5601 5602 5603 5604 5605 5606 5607 5608 5609
5566 5564 5564 5563 5562 5561 5560 5560 5559 5559 5560 5560 5561 5562 5563 5565 5566 5567 5568 5570 5572 5573 5575 5576 5578 5579 5581 5582 5583 5584 5584 5585 5586 5587 5588 5589 5590 5591 5592 5593 5594 5595 5596
5556 5554 5553 5552 5551 5550 5550 5549 5549 5549 5549 5550 5551 5552 5553 5554 5555 5557 5558 5559 5561 5562 5564 5565 5567 5569 5570 5571 5572 5573 5573 5574 5574 5575 5576 5577 5578 5579 5580 5581 5581 5582 5583
5546 5545 5543 5542 5541 5540 5540 5539 5539 5539 5540 5540 5541 5541 5543 5544 5545 5546 5548 5549 5551 5552 5553 5555 5556 5557 5559 5560 5561 5562 5562 5563 5564 5565 5565 5566 5566 5567 5567 5568 5568 5569 5570
5536 5535 5534 5533 5532 5531 5530 5530 5530 5530 5530 5531 5531 5532 5533 5534 5535 5536 5538 5539 5540 5542 5543 5544 5545 5547 5548 5549 5550 5551 5552 5552 5553 5554 5554 5555 5555 5555 5556 5556 5556 5556 5557
5527 5526 5525 5524 5523 5522 5521 5521 5521 5520 5521 5521 5522 5522 5523 5524 5525 5526 5528 5529 5530 5531 5533 5534 5535 5536 5537 5539 5540 5541 5541 5542 5542 5543 5543 5543 5543 5543 5543 5544 5544 5545 5545
5518 5517 5517 5516 5515 5514 5513 5512 5512 5511 5511 5512 5512 5513 5514 5515 5516 5517 5518 5520 5521 5522 5523 5524 5525 5526 5527 5528 5529 5530 5531 5531 5531 5531 5532 5532 5532 5532 5532 5532 5532 5533 5533
5510 5509 5508 5507 5506 5506 5505 5504 5503 5502 5502 5503 5503 5504 5505 5506 5507 5508 5509 5511 5512 5513 5514 5515 5516 5516 5517 5518 5519 5520 5520 5521 5521 5521 5521 5521 5521 5521 5521 5521 5521 5522 5522
5502 5501 5500 5499 5498 5497 5496 5495 5495 5494 5494 5494 5495 5496 5496 5497 5499 5500 5501 5502 5503 5505 5505 5506 5507 5507 5508 5508 5509 5510 5510 5510 5511 5511 5511 5511 5511 5511 5511 5511 5511 5511 5511
5494 5493 5492 5491 5490 5489 5488 5488 5487 5486 5486 5486 5487 5488 5489 5489 5491 5492 5493 5494 5495 5496 5497 5498 5498 5499 5499 5500 5500 5501 5501 5501 5501 5501 5501 5501 5501 5501 5501 5501 5501 5501 5501
5488 5486 5485 5483 5482 5481 5481 5480 5479 5479 5479 5479 5480 5481 5481 5482 5483 5484 5485 5486 5487 5488 5489 5490 5490 5490 5491 5491 5491 5492 5492 5492 5492 5492 5492 5492 5492 5492 5492 5492 5492 5491 5491
5481 5479 5478 5476 5475 5474 5473 5472 5472 5471 5472 5472 5473 5474 5475 5475 5476 5477 5478 5479 5480 5480 5481 5482 5482 5483 5483 5483 5483 5483 5483 5483 5483 5483 5483 5483 5483 5483 5483 5483 5483 5483 5483
5475 5473 5471 5469 5468 5467 5466 5465 5465 5465 5465 5466 5466 5467 5468 5469 5470 5470 5471 5472 5473 5473 5474 5475 5475 5475 5475 5475 5475 5475 5475 5475 5475 5475 5475 5475 5475 5475 5475 5475 5475 5475 5476
5468 5466 5464 5463 5461 5460 5459 5459 5458 5458 5459 5459 5460 5460 5461 5462 5462 5463 5464 5465 5465 5466 5467 5467 5468 5468 5468 5468 5467 5467 5467 5467 5468 5468 5468 5468 5468 5468 5468 5468 5468 5468 5469
5462 5460 5458 5457 5455 5454 5453 5452 5452 5452 5452 5453 5453 5454 5455 5455 5456 5457 5458 5458 5459 5460 5460 5461 5461 5461 5461 5461 5461 5461 5460 5461 5461 5461 5461 5461 5461 5461 5461 5461 5461 5462 5462
5456 5454 5452 5451 5449 5448 5447 5446 5446 5446 5446 5447 5447 5448 5449 5450 5450 5451 5452 5452 5453 5454 5454 5455 5455 5455 5455 5455 5455 5454 5454 5454 5454 5455 5455 5455 5455 5455 5455 5455 5455 5455 5456
5450 5448 5446 5445 5444 5442 5441 5440 5440 5440 5441 5441 5442 5443 5443 5444 5445 5445 5446 5447 5448 5449 5449 5449 5449 5450 5449 5449 5449 5449 5449 5449 5449 5449 5449 5449 5449 5449 5449 5449 5449 5450 5450
5444 5442 5441 5439 5438 5437 5436 5435 5435 5435 5436 5436 5437 5437 5438 5439 5439 5440 5441 5442 5443 5443 5444 5444 5444 5444 5444 5444 5444 5443 5443 5443 5444 5444 5444 5444 5444 5444 5444 5445 5445 5445 5445
5438 5437 5435 5434 5433 5432 5431 5431 5430 5431 5431 5431 5432 5433 5434 5434 5435 5436 5437 5437 5438 5438 5439 5439 5439 5439 5439 5439 5439 5439 5438 5439 5439 5439 5440 5440 5440 5440 5440 5440 5440 5440 5441
5433 5432 5431 5430 5429 5428 5427 5427 5427 5427 5427 5427 5428 5429 5429 5430 5431 5432 5432 5433 5433 5434 5434 5434 5434 5434 5434 5434 5434 5434 5434 5434 5435 5435 5436 5436 5437 5437 5437 5437 5436 5436 5436
5429 5428 5427 5426 5425 5424 5423 5423 5423 5423 5423 5424 5424 5425 5426 5426 5427 5428 5428 5429 5429 5429 5430 5430 5430 5430 5430 5430 5430 5430 5430 5431 5431 5432 5433 5433 5433 5434 5433 5433 5433 5433 5433
5426 5425 5423 5422 5422 5421 5420 5420 5420 5420 5420 5421 5421 5422 5422 5423 5423 5424 5424 5425 5425 5426 5426 5426 5426 5426 5426 5426 5426 5426 5427 5427 5428 5429 5429 5430 5430 5430 5430 5430 5430 5430 5429
5422 5421 5420 5419 5419 5418 5418 5417 5417 5417 5417 5418 5418 5419 5419 5420 5420 5421 5421 5421 5422 5422 5422 5422 5422 5423 5423 5423 5423 5423 5424 5424 5425 5426 5427 5427 5427 5427 5427 5427 5427 5426 5426
5419 5418 5417 5416 5416 5415 5415 5415 5415 5415 5415 5415 5415 5416 5416 5417 5417 5417 5418 5418 5418 5419 5419 5419 5419 5419 5420 5420 5420 5421 5421 5422 5422 5423 5424 5424 5425 5425 5424 5424 5424 5423 5423